TimePST,TemperatureF,Dew PointF,Humidity,Sea Level PressureIn,VisibilityMPH,Wind Direction,Wind SpeedMPH,Gust SpeedMPH,PrecipitationIn,Events,Conditions,WindDirDegrees,DateUTC
12:53 AM,43.0,39.0,86,29.82,10.0,Variable,3.5,-,0.02,Rain,Light Rain,0,2013-02-25 08:53:00
1:53 AM,43.0,39.9,89,29.84,10.0,WNW,5.8,-,0.01,Rain,Light Rain,300,2013-02-25 09:53:00
2:53 AM,43.0,37.0,80,29.85,10.0,West,13.8,-,0.00,,Scattered Clouds,270,2013-02-25 10:53:00
3:53 AM,42.1,37.0,82,29.85,10.0,WSW,5.8,-,0.01,Rain,Light Rain,250,2013-02-25 11:53:00
4:53 AM,42.1,37.0,82,29.87,10.0,SSW,8.1,-,0.00,,Overcast,210,2013-02-25 12:53:00
5:53 AM,41.0,36.0,82,29.88,10.0,WSW,17.3,23.0,0.00,,Overcast,250,2013-02-25 13:53:00
6:53 AM,42.1,36.0,79,29.91,10.0,WSW,12.7,-,0.00,Rain,Light Rain,250,2013-02-25 14:53:00
7:53 AM,42.1,35.1,76,29.93,10.0,West,10.4,-,0.00,,Overcast,260,2013-02-25 15:53:00
8:53 AM,44.1,34.0,68,29.95,10.0,West,26.5,38.0,N/A,,Overcast,260,2013-02-25 16:53:00
9:53 AM,46.0,33.1,61,29.99,10.0,West,27.6,38.0,N/A,,Mostly Cloudy,270,2013-02-25 17:53:00
10:53 AM,46.9,30.0,52,30.03,10.0,West,24.2,35.7,N/A,,Scattered Clouds,270,2013-02-25 18:53:00
11:53 AM,48.9,30.9,50,30.06,10.0,West,23.0,35.7,N/A,,Partly Cloudy,260,2013-02-25 19:53:00
12:53 PM,48.9,30.0,48,30.09,10.0,West,16.1,31.1,N/A,,Partly Cloudy,260,2013-02-25 20:53:00
1:53 PM,48.9,28.0,44,30.09,10.0,West,26.5,33.4,N/A,,Partly Cloudy,270,2013-02-25 21:53:00
2:53 PM,48.9,28.0,44,30.11,10.0,West,16.1,31.1,N/A,,Clear,280,2013-02-25 22:53:00
3:53 PM,46.9,28.9,50,30.13,10.0,West,20.7,-,N/A,,Partly Cloudy,280,2013-02-25 23:53:00
4:53 PM,46.0,28.9,51,30.16,10.0,West,19.6,27.6,N/A,,Clear,280,2013-02-26 00:53:00
5:53 PM,44.1,28.9,55,30.18,10.0,West,18.4,-,N/A,,Mostly Cloudy,280,2013-02-26 01:53:00
6:53 PM,44.1,28.0,53,30.20,10.0,West,20.7,28.8,N/A,,Scattered Clouds,270,2013-02-26 02:53:00
7:53 PM,43.0,28.0,56,30.22,10.0,West,13.8,-,N/A,,Partly Cloudy,260,2013-02-26 03:53:00
8:53 PM,43.0,28.0,56,30.24,10.0,West,13.8,-,N/A,,Partly Cloudy,260,2013-02-26 04:53:00
9:53 PM,42.1,28.9,60,30.26,10.0,WSW,11.5,-,N/A,,Clear,250,2013-02-26 05:53:00
10:53 PM,39.9,28.9,65,30.28,10.0,West,11.5,-,N/A,,Clear,270,2013-02-26 06:53:00
11:53 PM,37.9,28.9,70,30.29,10.0,SW,5.8,-,N/A,,Clear,230,2013-02-26 07:53:00